This demonstration page uses our WeatherBlox Daily Observations layout. Learn more.

Hourly Observations for April 23, 2019

Temp ( °F °C ) Dew Point ( °F °C ) Humidity (%) Winds ( mph kmh ) Pressure ( in mb ) Visibility ( mi km ) Precip ( " mm )
12:15 am 00:15 Clear 46 8 34 1.3 63 63 N 7 11 30.2 1023 10 16.0934 0 0
12:35 am 00:35 Clear 45 7 35 1.5 68 68 NNW 6 9 30.22 1023 10 16.0934 0 0
12:55 am 00:55 Clear 43 6.2 35 1.7 73 73 NNW 5 7 30.22 1023 10 16.0934 0 0
1:15 am 01:15 Clear 44 6.5 35 1.5 71 71 NNW 6 9 30.2 1023 10 16.0934 0 0
1:35 am 01:35 Clear 43 5.9 35 1.7 75 75 NNW 5 7 30.22 1023 10 16.0934 0 0
1:55 am 01:55 Clear 42 5.7 36 2.1 78 78 NNW 5 7 30.23 1024 10 16.0934 0 0
2:15 am 02:15 Clear 42 5.4 36 2 79 79 NNW 5 7 30.23 1024 10 16.0934 0 0
2:35 am 02:35 Clear 42 5.4 36 2 79 79 NNW 5 7 30.22 1024 10 16.0934 0 0
2:55 am 02:55 Clear 41 4.9 36 2 82 82 NNW 7 11 30.22 1023 10 16.0934 0 0
3:15 am 03:15 Clear 41 5 35 1.7 79 79 NNW 7 11 30.23 1024 10 16.0934 0 0
3:35 am 03:35 Clear 41 4.8 35 1.6 80 80 NNW 7 11 30.22 1023 10 16.0934 0 0
3:55 am 03:55 Clear 40 4.5 35 1.5 81 81 NNW 3 6 30.24 1024 10 16.0934 0 0
4:15 am 04:15 Clear 40 4.5 35 1.6 82 82 Calm 30.25 1024 10 16.0934 0 0
4:35 am 04:35 Clear 39 3.7 35 1.5 86 86 NNW 5 7 30.24 1024 10 16.0934 0 0
4:55 am 04:55 Clear 39 4 34 1.1 82 82 N 3 6 30.24 1024 10 16.0934 0 0
5:15 am 05:15 Clear 38 3.1 34 1 86 86 NW 3 6 30.26 1025 10 16.0934 0 0
5:35 am 05:35 Clear 38 3.2 35 1.4 88 88 NW 3 6 30.27 1025 10 16.0934 0 0
5:55 am 05:55 Clear 37 3 34 1.2 88 88 NW 5 7 30.26 1025 10 16.0934 0 0
6:15 am 06:15 Clear 37 2.8 34 1.3 90 90 WNW 3 6 30.26 1025 10 16.0934 0 0
6:35 am 06:35 Clear 37 2.5 34 1.2 91 91 NW 6 9 30.26 1025 10 16.0934 0 0
6:55 am 06:55 Sunny 37 2.8 34 1.3 90 90 WNW 3 6 30.26 1025 10 16.0934 0 0
7:15 am 07:15 Sunny 37 2.6 34 1.3 91 91 NW 3 6 30.25 1024 10 16.0934 0 0
7:35 am 07:35 Sunny 37 3 35 1.8 92 92 NW 3 6 30.26 1025 10 16.0934 0 0
7:55 am 07:55 Sunny 39 3.9 37 2.5 91 91 NNW 3 6 30.24 1024 10 16.0934 0 0
8:15 am 08:15 Sunny 41 5.1 38 3.4 89 89 N 3 6 30.24 1024 10 16.0934 0 0
8:35 am 08:35 Sunny 44 6.8 40 4.4 85 85 N 5 7 30.21 1023 10 16.0934 0 0
8:55 am 08:55 Sunny 46 7.8 40 4.5 80 80 N 6 9 30.21 1023 10 16.0934 0 0
9:15 am 09:15 Sunny 47 8.6 40 4.5 76 76 N 7 11 30.2 1023 10 16.0934 0 0
9:35 am 09:35 Sunny 48 9.1 40 4.3 72 72 NNE 7 11 30.19 1022 10 16.0934 0 0
9:55 am 09:55 Sunny 50 10.1 39 3.7 65 65 NNE 6 9 30.18 1022 10 16.0934 0 0
10:15 am 10:15 Sunny 52 11 38 3.6 61 61 NE 6 9 30.18 1022 10 16.0934 0 0
10:35 am 10:35 Sunny 53 11.7 37 2.5 54 54 NNE 7 11 30.18 1022 10 16.0934 0 0
10:55 am 10:55 Sunny 55 12.5 36 2 49 49 NE 7 11 30.17 1022 10 16.0934 0 0
11:15 am 11:15 Sunny 56 13.2 35 1.7 46 46 NE 9 15 30.15 1021 10 16.0934 0 0
11:35 am 11:35 Sunny 57 13.8 34 1.3 43 43 NE 10 17 30.14 1021 10 16.0934 0 0
11:55 am 11:55 Sunny 58 14.3 34 0.9 40 40 ENE 9 15 30.13 1020 10 16.0934 0 0
12:15 pm 12:15 Sunny 58 14.6 33 0.3 38 38 NE 8 13 30.12 1020 10 16.0934 0 0
12:35 pm 12:35 Sunny 59 15.2 35 1.7 40 40 NNE 8 13 30.11 1020 10 16.0934 0 0
12:55 pm 12:55 Sunny 59 15.2 33 0.4 37 37 NE 7 11 30.09 1019 10 16.0934 0 0
1:15 pm 13:15 Sunny 60 15.8 33 0.3 35 35 E 9 15 30.07 1018 10 16.0934 0 0
1:35 pm 13:35 Sunny 61 16.1 33 0.4 35 35 E 12 19 30.06 1018 10 16.0934 0 0
1:55 pm 13:55 Sunny 62 16.4 33 0.5 34 34 E 6 9 30.06 1018 10 16.0934 0 0
2:15 pm 14:15 Sunny 61 16.2 31 -0.5 32 32 Calm 30.05 1018 10 16.0934 0 0
2:35 pm 14:35 Sunny 62 16.6 33 0.3 33 33 ENE 5 7 30.04 1017 10 16.0934 0 0
2:55 pm 14:55 Sunny 63 17.1 33 0.4 32 32 E 7 11 30.03 1017 10 16.0934 0 0
3:15 pm 15:15 Sunny 63 17.3 33 0.4 32 32 NE 8 13 30.02 1017 10 16.0934 0 0
3:35 pm 15:35 Sunny 63 17.1 31 -0.6 30 30 NNE 3 6 30.01 1016 10 16.0934 0 0
3:55 pm 15:55 Sunny 64 17.5 31 -0.3 30 30 NE 8 13 30 1016 10 16.0934 0 0
4:15 pm 16:15 Sunny 64 17.9 33 0.3 31 31 ENE 6 9 29.98 1015 10 16.0934 0 0
4:35 pm 16:35 Sunny 64 18 33 0.3 30 30 ENE 8 13 29.97 1015 10 16.0934 0 0
4:55 pm 16:55 Sunny 64 18 31 -0.5 29 29 E 9 15 29.95 1014 10 16.0934 0 0
5:15 pm 17:15 Sunny 64 18 31 -0.5 29 29 N 7 11 29.95 1014 10 16.0934 0 0
5:35 pm 17:35 Sunny 65 18.1 31 -0.4 29 29 ENE 5 7 29.95 1014 10 16.0934 0 0
5:55 pm 17:55 Sunny 64 18 30 -1.2 27 27 NE 3 6 29.94 1014 10 16.0934 0 0
6:15 pm 18:15 Sunny 64 18 32 -0.1 30 30 NE 5 7 29.94 1014 10 16.0934 0 0
6:35 pm 18:35 Sunny 64 18 31 -0.4 29 29 ESE 6 9 29.94 1014 10 16.0934 0 0
6:55 pm 18:55 Sunny 64 17.7 30 -1 28 28 Calm 29.94 1014 10 16.0934 0 0
7:15 pm 19:15 Sunny 63 17.2 33 0.8 33 33 E 6 9 29.94 1014 10 16.0934 0 0
7:35 pm 19:35 Sunny 63 17.1 33 0.4 32 32 ENE 5 7 29.94 1014 10 16.0934 0 0
7:55 pm 19:55 Sunny 60 15.8 35 1.9 39 39 ENE 5 7 29.95 1014 10 16.0934 0 0
8:15 pm 20:15 Sunny 59 15.2 36 2.1 41 41 Calm 29.96 1014 10 16.0934 0 0
8:35 pm 20:35 Clear 57 14.1 36 2.4 45 45 ESE 6 9 29.97 1015 10 16.0934 0 0
8:55 pm 20:55 Clear 55 12.7 35 1.9 48 48 Calm 29.98 1015 10 16.0934 0 0
9:15 pm 21:15 Clear 56 13.6 34 0.9 42 42 Calm 29.97 1015 10 16.0934 0 0
9:35 pm 21:35 Clear 56 13.3 32 -0.1 40 40 Calm 29.97 1015 10 16.0934 0 0
9:55 pm 21:55 Clear 54 12 33 0.6 46 46 Calm 29.99 1015 10 16.0934 0 0
10:15 pm 22:15 Clear 53 11.6 32 0.2 46 46 Calm 29.99 1016 10 16.0934 0 0
10:35 pm 22:35 Clear 51 10.5 36 2.4 58 58 Calm 30 1016 10 16.0934 0 0
10:55 pm 22:55 Clear 49 9.6 37 2.5 62 62 Calm 30.01 1016 10 16.0934 0 0
11:15 pm 23:15 Clear 46 7.9 38 3.1 72 72 Calm 30.02 1017 10 16.0934 0 0
11:35 pm 23:35 Clear 47 8.1 37 2.8 70 70 Calm 30.01 1016 10 16.0934 0 0
11:55 pm 23:55 Clear 48 9.1 35 1.5 59 59 Calm 30 1016 10 16.0934 0 0

Powered by AerisWeather